This is the latest recevied weather packets stored in our database for station/object N4QD-13. If no packets are shown the sender has not sent any weather packets the latest 10 day(s).
| Time | Temp. | Humidity | Pressure | Rain* | Wind** | Luminosity | Snow |
|---|---|---|---|---|---|---|---|
| 1777769895 | 11.11° C | 48% | 1014.8 hPa | 0 mm | - | 0 W/m² | - |
| 1777769593 | 11.11° C | 48% | 1014.8 hPa | 0 mm | - | 0 W/m² | - |
| 1777769289 | 11.11° C | 47% | 1014.8 hPa | 0 mm | - | 0 W/m² | - |
| 1777768987 | 11.11° C | 47% | 1014.5 hPa | 0 mm | - | 0 W/m² | - |
| 1777768684 | 11.11° C | 47% | 1014.5 hPa | 0 mm | - | 0 W/m² | - |
| 1777768381 | 11.11° C | 47% | 1014.3 hPa | 0 mm | - | 0 W/m² | - |
| 1777768078 | 11.11° C | 47% | 1014.4 hPa | 0 mm | - | 0 W/m² | - |
| 1777767774 | 11.11° C | 47% | 1014.3 hPa | 0 mm | - | 0 W/m² | - |
| 1777767470 | 11.67° C | 48% | 1014.3 hPa | 0 mm | - | 0 W/m² | - |
| 1777767167 | 11.67° C | 48% | 1013.9 hPa | 0 mm | - | 0 W/m² | - |
| 1777766865 | 11.67° C | 47% | 1013.9 hPa | 0 mm | - | 0 W/m² | - |
| 1777766562 | 11.67° C | 46% | 1014 hPa | 0 mm | - | 0 W/m² | - |
| 1777766259 | 11.67° C | 45% | 1013.9 hPa | 0 mm | - | 1 W/m² | - |
| 1777765957 | 11.67° C | 46% | 1013.7 hPa | 0 mm | - | 2 W/m² | - |
| 1777765653 | 11.67° C | 47% | 1013.6 hPa | 0 mm | - | 3 W/m² | - |
| 1777765350 | 12.22° C | 46% | 1013.5 hPa | 0 mm | - | 5 W/m² | - |
| 1777765046 | 12.22° C | 47% | 1013.5 hPa | 0 mm | - | 6 W/m² | - |
| 1777764743 | 12.22° C | 45% | 1013.6 hPa | 0 mm | - | 8 W/m² | - |
| 1777764439 | 12.22° C | 45% | 1013.5 hPa | 0 mm | - | 12 W/m² | - |
| 1777764136 | 12.22° C | 46% | 1013.5 hPa | 0 mm | - | 14 W/m² | - |
| 1777763833 | 12.22° C | 45% | 1013.4 hPa | 0 mm | - | 19 W/m² | - |
| 1777763531 | 12.22° C | 45% | 1013.4 hPa | 0 mm | - | 24 W/m² | - |
| 1777763229 | 12.78° C | 45% | 1013.2 hPa | 0 mm | - | 31 W/m² | - |
| 1777762927 | 12.78° C | 47% | 1013.4 hPa | 0 mm | - | 45 W/m² | - |
| 1777762622 | 12.78° C | 48% | 1013.4 hPa | 0 mm | - | 45 W/m² | - |
* Rain latest hour (hover to see other rain measurements)
** Current wind speed in m/s (hover to see current wind gust speed)